Wind_Speed
5 5 7 7 8 10 11 13 13 13 15 18 19 20 19 20 18 17 19 21 22 21 21 21 21 21 21 20 20 20 21 22 22 22 21 21 22 23 23 24 25 26 26 26
7 7 8 10 11 12 12 13 13 15 17 19 20 19 20 19 20 20 20 22 22 22 22 23 22 22 22 21 21 21 21 21 21 22 22 23 23 23 24 25 26 26 26 27
8 8 10 12 12 13 14 15 15 16 17 18 19 20 20 20 21 21 21 21 23 22 23 24 24 23 22 21 20 20 20 20 21 21 23 24 24 24 24 25 26 26 26 26
9 11 12 12 13 14 15 16 17 17 17 17 17 20 21 22 21 21 21 22 23 23 23 24 23 22 22 21 20 20 20 20 21 21 23 24 25 25 25 26 26 26 26 27
11 12 13 13 15 16 16 17 18 17 17 18 17 20 21 22 21 21 23 23 24 24 23 23 23 22 21 21 21 21 21 21 21 22 23 24 25 25 26 25 25 25 26 26
12 14 15 15 16 17 17 17 17 16 17 19 19 20 21 22 21 22 24 23 24 24 23 23 22 22 22 21 21 21 21 22 22 23 24 25 25 25 26 26 25 26 26 26
15 15 16 17 18 18 17 17 18 17 16 18 18 19 20 22 23 22 25 25 25 25 24 22 22 22 22 22 21 22 22 23 23 23 24 25 25 25 25 25 26 26 25 25
18 16 15 17 18 18 18 18 19 20 20 20 19 20 20 20 24 23 23 24 23 23 23 23 23 22 22 22 22 22 22 22 23 24 24 23 24 24 25 25 26 26 26 25
19 19 19 19 19 19 20 20 19 22 21 21 20 20 19 22 24 23 22 22 22 23 24 24 24 22 21 21 22 22 22 21 22 22 22 23 24 24 24 24 25 24 24 23
22 22 21 21 22 19 19 20 22 21 21 21 19 19 19 23 25 24 22 22 22 23 24 25 24 21 21 21 21 22 21 21 21 22 22 22 23 23 23 23 22 22 22 23
24 26 24 23 22 20 19 20 20 22 22 21 20 19 20 23 24 24 24 22 21 22 24 24 22 21 20 21 20 21 21 21 21 21 21 21 22 22 22 21 20 21 22 23
26 27 25 24 22 21 20 20 20 22 22 22 23 23 22 22 22 23 24 22 21 21 23 23 21 21 21 20 20 20 19 19 20 21 21 20 21 21 20 19 20 21 21 22
26 26 24 22 21 21 20 20 21 23 23 22 23 23 23 23 22 23 22 21 21 21 22 22 21 21 20 19 19 18 19 19 19 20 20 20 21 20 19 19 20 21 21 21
25 24 23 23 21 20 19 18 19 22 23 23 23 23 24 25 25 24 22 21 21 20 20 20 20 18 17 18 18 18 19 19 19 20 20 19 19 19 19 19 20 20 21 21
24 23 22 22 21 20 20 20 21 22 23 24 25 24 24 24 23 22 21 19 17 17 18 18 18 17 18 18 18 19 18 19 19 19 19 19 19 18 18 19 19 20 20 20
24 23 22 21 21 20 21 20 21 22 23 23 24 24 24 24 22 21 19 17 15 16 16 17 16 16 17 18 18 18 18 18 18 18 18 18 18 17 18 18 18 19 19 20
24 24 22 20 19 20 20 18 19 20 21 23 22 22 22 21 21 21 18 15 14 15 16 17 17 17 16 16 17 16 16 16 16 17 17 17 17 16 16 16 17 18 18 19
23 22 21 20 20 19 18 17 18 18 18 20 21 20 20 19 19 18 18 17 15 14 15 15 16 15 15 15 16 16 15 15 15 15 15 16 15 15 16 15 16 16 18 19
22 21 20 20 19 19 18 17 18 17 16 17 17 16 17 17 16 17 16 15 14 14 14 14 13 13 14 14 14 13 13 13 13 13 14 14 14 14 14 15 15 16 17 18
21 20 20 19 19 19 18 17 19 17 15 16 17 16 15 14 14 14 14 14 14 14 13 12 12 12 12 13 12 12 12 12 12 12 13 14 14 14 14 15 16 17 17 18
22 20 19 18 17 18 18 17 17 16 15 15 16 15 15 14 13 13 13 12 13 13 12 13 12 12 11 12 12 12 12 12 13 12 13 13 14 14 14 15 16 17 18 19
21 20 19 19 18 17 18 17 16 16 16 15 14 14 14 13 13 12 12 11 11 10 10 12 12 12 11 11 11 11 12 12 12 13 13 14 14 14 15 15 16 17 18 20
20 19 19 18 18 18 19 18 17 17 16 15 14 14 13 13 12 12 12 11 10 9 9 10 11 11 11 11 11 11 11 12 12 12 13 14 14 15 15 16 17 18 19 20
20 20 20 19 19 18 18 17 16 16 16 16 15 14 13 13 12 11 11 11 10 9 9 9 10 10 10 9 11 11 11 12 13 12 13 13 14 15 16 17 17 18 19 19
20 19 19 19 18 18 17 16 17 16 15 15 14 13 12 12 11 10 10 10 10 10 10 9 10 10 9 11 11 11 11 12 13 13 13 13 14 15 15 16 17 18 18 19
20 19 18 18 18 18 17 16 16 16 14 13 13 11 10 11 11 10 10 9 9 9 9 8 8 9 9 10 10 10 11 12 12 13 13 14 15 16 17 18 18 18 19 19
Wind_Direction
341 332 326 311 291 287 292 295 296 292 290 287 289 290 288 288 285 281 283 286 288 290 290 290 292 291 288 289 288 287 285 286 289 290 292 295 296 296 299 302 303 302 302 301
337 333 317 299 287 294 294 292 293 289 285 285 287 288 287 290 288 281 280 285 289 289 289 290 291 292 290 289 288 287 288 287 289 290 291 296 297 298 300 301 302 301 301 302
313 302 284 285 291 294 290 291 290 287 286 286 288 291 288 286 283 282 283 289 292 291 289 290 290 290 291 290 289 289 290 290 291 291 293 296 297 300 301 302 303 303 302 301
301 294 291 294 295 294 295 294 289 289 289 291 287 284 284 281 281 288 284 285 287 288 288 289 289 288 290 289 287 287 290 293 295 296 295 297 299 300 301 303 303 304 303 302
302 296 297 296 292 292 294 295 294 296 295 293 288 278 279 283 279 282 284 281 284 289 289 290 289 286 286 287 288 287 289 292 294 297 297 299 301 302 302 304 303 303 303 302
302 297 297 292 291 296 298 298 298 296 291 285 286 280 277 278 279 279 282 286 291 291 290 289 289 288 285 285 286 286 289 291 293 296 299 300 301 302 303 304 305 305 303 301
302 298 296 297 298 298 298 298 297 292 286 286 288 283 279 281 283 282 284 292 295 292 287 286 287 288 286 283 285 284 287 290 293 295 298 300 301 302 304 305 304 304 302 302
298 297 290 293 297 295 297 296 296 294 291 290 286 278 280 283 282 286 289 293 292 291 288 287 285 286 286 285 286 288 287 289 292 293 296 300 302 302 304 306 306 306 304 304
294 295 292 289 289 290 292 291 288 284 286 288 285 280 282 286 287 289 290 292 292 291 290 288 288 287 284 284 287 290 288 290 294 296 298 300 301 303 304 306 307 308 308 307
288 288 291 292 293 294 291 290 288 286 286 284 283 279 282 286 286 282 288 293 289 288 289 290 288 284 284 286 288 290 291 292 293 295 297 300 303 306 306 307 306 307 309 308
293 292 293 292 294 296 292 287 284 280 281 285 286 282 284 286 288 290 289 289 287 289 290 290 286 285 286 286 288 291 292 291 294 296 297 300 303 305 306 308 309 310 310 310
298 297 296 296 296 295 292 289 285 282 280 277 277 279 283 285 287 290 289 290 291 290 290 287 285 286 287 287 288 290 291 294 296 298 300 302 304 305 306 307 309 310 311 311
302 301 300 298 295 291 290 289 282 282 284 279 275 279 283 283 284 289 289 288 290 292 290 287 289 288 286 286 287 290 292 294 296 299 301 303 305 305 305 308 311 310 310 313
305 303 302 299 295 291 286 283 283 281 280 282 278 280 280 282 282 285 290 286 287 288 290 289 292 290 290 289 290 291 294 293 294 298 301 302 304 305 306 308 311 311 311 313
307 307 307 302 298 295 293 287 285 285 283 282 281 279 279 284 285 285 293 292 289 286 288 291 294 292 291 292 291 292 293 292 295 298 300 302 303 304 306 308 309 311 313 315
312 313 311 308 305 299 295 296 290 286 285 283 280 280 280 281 285 286 290 290 286 286 290 290 290 293 292 292 292 292 292 293 296 298 299 302 305 306 308 310 312 314 315 317
314 316 314 311 309 302 300 302 297 291 286 285 284 282 281 283 284 283 288 283 284 285 288 289 290 291 294 295 295 293 296 294 297 298 301 304 306 307 309 310 313 315 317 318
315 317 317 314 314 307 306 300 297 295 293 288 286 286 283 285 283 280 285 285 286 285 286 290 293 293 296 297 296 296 296 296 298 301 305 306 307 308 308 312 315 316 318 319
316 316 315 315 313 312 310 304 301 297 292 290 286 287 285 283 279 276 280 282 280 283 284 291 292 295 296 300 299 304 306 305 304 306 310 311 312 312 313 316 318 320 320 321
316 315 314 317 313 309 310 303 301 297 295 293 287 286 283 280 278 276 276 277 279 282 283 288 291 291 296 302 307 309 310 312 312 312 316 315 315 317 320 320 321 322 323 324
313 313 314 315 313 312 314 308 304 300 297 292 287 287 283 278 280 279 273 274 277 281 281 285 288 293 298 303 304 307 311 314 316 315 315 319 320 322 323 324 324 325 325 326
309 310 312 311 313 311 311 306 302 300 296 290 286 287 284 279 279 277 274 275 276 278 280 286 291 295 297 301 304 306 309 313 314 315 315 317 320 322 323 325 326 327 327 327
305 304 306 308 308 305 302 303 302 301 298 291 290 290 284 276 275 274 275 278 277 276 280 287 294 297 297 298 302 306 310 314 315 315 316 317 318 320 322 325 326 327 327 328
302 303 305 305 304 303 302 303 300 300 298 294 293 290 284 277 276 277 280 278 275 275 279 284 292 297 297 297 303 305 308 314 316 317 319 320 321 321 323 326 327 328 330 331
305 302 304 304 303 302 304 304 302 301 295 291 289 287 283 275 273 277 272 266 269 274 275 281 288 295 298 300 302 303 310 314 317 320 322 324 324 325 327 330 330 330 332 333
301 300 302 301 300 298 301 303 302 301 295 291 289 283 278 279 276 270 274 277 275 275 275 280 287 294 300 304 303 303 310 317 320 322 324 325 328 330 331 331 331 331 332 334
Height
5858 5858 5858 5858 5858 5858 5858 5857 5857 5856 5855 5853 5851 5848 5847 5845 5843 5842 5842 5840 5840 5839 5837 5835 5834 5833 5832 5831 5830 5829 5828 5827 5826 5825 5824 5823 5822 5821 5819 5817 5814 5812 5810 5807
5858 5858 5859 5858 5857 5856 5855 5855 5855 5854 5852 5850 5847 5845 5843 5841 5839 5838 5837 5836 5836 5834 5833 5831 5830 5829 5828 5827 5826 5825 5824 5823 5822 5821 5820 5818 5817 5816 5814 5812 5810 5807 5804 5802
5858 5859 5857 5856 5855 5854 5853 5852 5851 5849 5847 5846 5844 5842 5841 5838 5835 5834 5833 5832 5832 5831 5829 5828 5826 5825 5824 5823 5822 5821 5820 5819 5818 5817 5816 5814 5813 5811 5809 5807 5805 5802 5799 5796
5857 5857 5855 5854 5853 5851 5850 5849 5847 5844 5843 5842 5842 5839 5836 5833 5831 5830 5829 5828 5827 5826 5825 5823 5822 5821 5820 5819 5817 5816 5816 5815 5814 5813 5811 5810 5808 5806 5804 5801 5799 5796 5793 5789
5855 5854 5853 5852 5850 5848 5846 5844 5842 5840 5839 5837 5837 5834 5832 5829 5827 5826 5824 5822 5822 5821 5820 5819 5817 5816 5815 5814 5813 5812 5811 5811 5810 5808 5806 5805 5803 5801 5799 5796 5794 5790 5787 5784
5852 5851 5850 5848 5846 5844 5841 5840 5838 5836 5836 5835 5833 5830 5827 5825 5822 5821 5819 5817 5818 5816 5816 5815 5813 5812 5811 5810 5809 5807 5806 5806 5805 5803 5802 5800 5798 5796 5793 5791 5789 5785 5782 5779
5849 5848 5846 5844 5842 5840 5838 5836 5834 5833 5831 5830 5829 5826 5824 5821 5818 5815 5814 5813 5813 5811 5811 5810 5809 5807 5806 5805 5804 5803 5802 5801 5800 5798 5797 5795 5793 5790 5788 5786 5783 5780 5777 5774
5844 5844 5842 5839 5838 5835 5834 5832 5831 5828 5826 5824 5823 5821 5820 5816 5814 5811 5809 5809 5808 5806 5805 5804 5803 5802 5801 5800 5799 5798 5797 5796 5795 5793 5792 5790 5788 5785 5783 5781 5778 5775 5772 5769
5838 5838 5836 5834 5832 5830 5828 5827 5826 5823 5820 5819 5818 5817 5815 5813 5810 5808 5806 5805 5804 5802 5801 5799 5798 5797 5796 5795 5794 5793 5792 5790 5789 5788 5787 5785 5783 5781 5778 5776 5773 5770 5767 5765
5833 5831 5831 5829 5826 5825 5823 5821 5819 5816 5814 5813 5813 5811 5810 5808 5805 5802 5800 5800 5799 5798 5796 5795 5793 5791 5789 5790 5789 5788 5787 5786 5785 5783 5782 5780 5778 5776 5773 5771 5768 5766 5763 5760
5826 5825 5824 5823 5821 5819 5818 5816 5813 5811 5809 5808 5806 5808 5805 5803 5800 5797 5796 5795 5794 5793 5791 5789 5787 5786 5786 5785 5784 5783 5782 5781 5779 5778 5776 5775 5773 5770 5768 5766 5763 5761 5759 5756
5820 5818 5816 5816 5814 5812 5811 5809 5808 5806 5803 5803 5801 5803 5799 5797 5794 5791 5790 5789 5788 5787 5786 5783 5782 5781 5781 5781 5780 5779 5777 5776 5774 5773 5772 5770 5768 5766 5764 5762 5759 5757 5754 5752
5814 5812 5809 5809 5810 5808 5805 5804 5802 5800 5797 5796 5795 5797 5793 5791 5788 5787 5786 5784 5783 5782 5780 5779 5777 5777 5777 5776 5775 5774 5772 5771 5770 5769 5767 5765 5764 5762 5760 5758 5755 5753 5751 5748
5808 5806 5804 5802 5800 5799 5798 5797 5796 5794 5792 5790 5789 5789 5787 5785 5783 5782 5780 5779 5778 5778 5776 5774 5773 5771 5771 5771 5771 5769 5768 5767 5766 5765 5763 5761 5760 5758 5756 5754 5752 5749 5747 5745
5803 5801 5798 5796 5794 5793 5791 5790 5790 5788 5786 5785 5784 5783 5781 5779 5778 5776 5775 5774 5773 5773 5772 5770 5770 5769 5769 5768 5766 5765 5764 5763 5762 5760 5759 5757 5756 5754 5752 5750 5748 5746 5743 5741
5798 5796 5794 5792 5790 5788 5786 5785 5784 5783 5781 5780 5779 5778 5776 5774 5773 5772 5771 5770 5770 5770 5769 5768 5766 5766 5765 5764 5762 5761 5759 5758 5757 5756 5755 5753 5752 5750 5748 5746 5744 5742 5740 5737
5794 5791 5789 5787 5785 5783 5782 5781 5779 5777 5776 5774 5773 5773 5771 5769 5768 5768 5767 5767 5766 5766 5765 5764 5763 5762 5761 5760 5758 5757 5755 5754 5753 5752 5751 5749 5748 5746 5744 5742 5740 5738 5736 5734
5791 5788 5785 5782 5781 5779 5781 5777 5774 5772 5770 5769 5768 5767 5766 5765 5765 5764 5763 5762 5762 5762 5762 5761 5759 5759 5758 5757 5755 5753 5751 5750 5749 5748 5747 5746 5744 5743 5741 5739 5737 5735 5733 5730
5786 5784 5781 5778 5776 5775 5775 5772 5769 5768 5766 5764 5763 5762 5762 5762 5762 5761 5760 5759 5759 5759 5759 5758 5757 5756 5755 5754 5752 5750 5748 5747 5746 5746 5744 5743 5741 5740 5738 5736 5734 5732 5730 5727
5782 5780 5777 5774 5772 5770 5771 5768 5765 5765 5763 5761 5760 5759 5759 5758 5758 5758 5757 5756 5757 5757 5756 5756 5755 5754 5753 5751 5750 5748 5747 5746 5745 5743 5742 5740 5739 5737 5735 5733 5731 5729 5727 5724
5779 5776 5774 5772 5769 5767 5766 5763 5762 5762 5761 5758 5757 5756 5756 5755 5755 5755 5754 5754 5754 5754 5754 5753 5752 5751 5751 5749 5748 5747 5745 5744 5743 5742 5740 5739 5737 5735 5733 5731 5729 5726 5724 5721
5775 5773 5771 5768 5765 5766 5761 5760 5759 5758 5755 5754 5754 5753 5753 5752 5752 5752 5751 5751 5751 5751 5751 5751 5750 5749 5748 5747 5746 5745 5744 5743 5741 5740 5738 5737 5735 5732 5730 5728 5726 5723 5720 5717
5771 5770 5767 5765 5765 5761 5758 5756 5755 5753 5752 5752 5751 5751 5749 5749 5749 5749 5749 5748 5749 5749 5748 5748 5748 5747 5746 5745 5744 5743 5742 5741 5739 5738 5736 5734 5732 5730 5728 5725 5723 5720 5717 5714
5768 5765 5763 5761 5760 5758 5755 5753 5751 5750 5749 5749 5748 5747 5746 5746 5746 5746 5746 5746 5746 5746 5746 5746 5745 5745 5744 5742 5742 5741 5740 5739 5737 5736 5734 5732 5730 5728 5725 5723 5720 5717 5714 5711
5763 5762 5759 5758 5757 5755 5753 5750 5749 5748 5746 5746 5745 5744 5744 5743 5743 5743 5743 5743 5743 5744 5744 5744 5743 5743 5742 5741 5740 5739 5738 5737 5735 5733 5732 5730 5728 5725 5723 5720 5717 5714 5711 5708
5759 5758 5756 5755 5753 5751 5750 5748 5746 5745 5744 5743 5743 5742 5742 5741 5741 5741 5741 5741 5741 5741 5741 5741 5741 5741 5740 5739 5738 5737 5736 5734 5733 5731 5730 5728 5725 5723 5720 5718 5715 5712 5708 5705